| time (UTC) | temp F | wind direction | speed MPH | gust MPH | rain 1hr in | rain 24hr in | rain mn in | humidity % | barometer mb |
| 20260509120019 | 44 | 268 | 5.0 | 8.0 | 0.00 | 0.00 | 0.00 | 38 | 948.4 |
| 20260509114603 | 45 | 275 | 7.0 | 10.0 | 0.00 | 0.00 | 0.00 | 37 | 948.4 |
| 20260509113034 | 45 | 290 | 4.0 | 9.0 | 0.00 | 0.00 | 0.00 | 36 | 948.3 |
| 20260509111513 | 45 | 270 | 4.0 | 8.0 | 0.00 | 0.00 | 0.00 | 35 | 948.2 |
| 20260509110047 | 45 | 294 | 3.0 | 7.0 | 0.00 | 0.00 | 0.00 | 36 | 948.1 |
| 20260509104533 | 44 | 287 | 5.0 | 7.0 | 0.00 | 0.00 | 0.00 | 37 | 948.1 |
| 20260509103007 | 45 | 272 | 3.0 | 6.0 | 0.00 | 0.00 | 0.00 | 35 | 948.0 |
| 20260509101541 | 46 | 273 | 5.0 | 9.0 | 0.00 | 0.00 | 0.00 | 32 | 947.8 |
| 20260509100030 | 46 | 286 | 7.0 | 10.0 | 0.00 | 0.00 | 0.00 | 33 | 947.6 |
| 20260509094555 | 44 | 260 | 4.0 | 8.0 | 0.00 | 0.00 | 0.00 | 38 | 947.5 |
| 20260509093036 | 45 | 264 | 6.0 | 9.0 | 0.00 | 0.00 | 0.00 | 37 | 947.3 |
| 20260509091511 | 45 | 267 | 6.0 | 8.0 | 0.00 | 0.00 | 0.00 | 37 | 947.1 |
| 20260509090049 | 46 | 247 | 6.0 | 8.0 | 0.00 | 0.00 | 0.00 | 36 | 946.8 |
| 20260509084532 | 47 | 271 | 6.0 | 11.0 | 0.00 | 0.00 | 0.00 | 35 | 946.8 |
| 20260509083004 | 47 | 261 | 6.0 | 10.0 | 0.00 | 0.00 | 0.00 | 34 | 946.7 |
| 20260509081547 | 48 | 268 | 7.0 | 11.0 | 0.00 | 0.00 | 0.00 | 32 | 946.7 |
| 20260509080031 | 49 | 234 | 8.0 | 14.0 | 0.00 | 0.00 | 0.00 | 30 | 946.6 |
| 20260509074525 | 49 | 275 | 7.0 | 15.0 | 0.00 | 0.00 | 0.00 | 29 | 946.6 |
| 20260509073009 | 51 | 272 | 11.0 | 19.0 | 0.00 | 0.00 | 0.00 | 27 | 946.4 |
| 20260509071608 | 51 | 287 | 10.0 | 18.0 | 0.00 | 0.00 | 0.00 | 27 | 946.4 |
| 20260509070046 | 51 | 261 | 10.0 | 17.0 | 0.00 | 0.00 | 0.00 | 26 | 946.3 |
| 20260509064531 | 52 | 246 | 12.0 | 20.0 | 0.00 | 0.00 | 0.00 | 25 | 946.0 |
| 20260509063015 | 52 | 225 | 11.0 | 18.0 | 0.00 | 0.00 | 0.00 | 24 | 945.8 |
| 20260509061552 | 53 | 249 | 12.0 | 19.0 | 0.00 | 0.00 | 0.00 | 23 | 946.1 |
| 20260509060029 | 53 | 228 | 10.0 | 19.0 | 0.00 | 0.00 | 0.00 | 22 | 946.0 |
| 20260509054614 | 53 | 215 | 14.0 | 20.0 | 0.00 | 0.00 | 0.00 | 21 | 945.9 |
| 20260509054502 | 53 | 236 | 13.0 | 20.0 | 0.00 | 0.00 | 0.00 | 22 | 945.9 |
| 20260509053040 | 54 | 239 | 12.0 | 22.0 | 0.00 | 0.00 | 0.00 | 21 | 946.0 |
| 20260509051527 | 55 | 250 | 14.0 | 23.0 | 0.00 | 0.00 | 0.00 | 19 | 945.9 |
| 20260509050058 | 56 | 223 | 12.0 | 26.0 | 0.00 | 0.00 | 0.00 | 17 | 945.8 |
| 20260509044544 | 57 | 231 | 12.0 | 28.0 | 0.00 | 0.00 | 0.00 | 16 | 945.8 |
| 20260509043010 | 57 | 283 | 18.0 | 30.0 | 0.00 | 0.00 | 0.00 | 16 | 945.5 |
| 20260509041548 | 58 | 242 | 20.0 | 29.0 | 0.00 | 0.00 | 0.00 | 17 | 945.3 |
| 20260509040023 | 57 | 234 | 16.0 | 25.0 | 0.00 | 0.00 | 0.00 | 19 | 945.3 |
| 20260509034503 | 57 | 244 | 15.0 | 25.0 | 0.00 | 0.00 | 0.00 | 18 | 945.5 |
| 20260509033059 | 57 | 246 | 15.0 | 22.0 | 0.00 | 0.00 | 0.00 | 17 | 945.4 |
| 20260509033003 | 57 | 236 | 16.0 | 22.0 | 0.00 | 0.00 | 0.00 | 17 | 945.4 |
| 20260509031603 | 58 | 224 | 15.0 | 26.0 | 0.00 | 0.00 | 0.00 | 17 | 945.1 |
| 20260509031504 | 58 | 221 | 17.0 | 26.0 | 0.00 | 0.00 | 0.00 | 16 | 945.2 |
| 20260509030003 | 58 | 247 | 14.0 | 21.0 | 0.00 | 0.00 | 0.00 | 17 | 945.1 |
| 20260509024554 | 58 | 246 | 16.0 | 23.0 | 0.00 | 0.00 | 0.00 | 18 | 945.0 |
| 20260509023059 | 58 | 244 | 14.0 | 22.0 | 0.00 | 0.00 | 0.00 | 19 | 944.8 |
| 20260509021552 | 59 | 240 | 16.0 | 26.0 | 0.00 | 0.00 | 0.00 | 19 | 944.6 |
| 20260509020059 | 59 | 259 | 18.0 | 30.0 | 0.00 | 0.00 | 0.00 | 17 | 944.6 |
| 20260509014556 | 60 | 242 | 18.0 | 30.0 | 0.00 | 0.00 | 0.00 | 17 | 944.6 |
| 20260509013043 | 61 | 257 | 22.0 | 30.0 | 0.00 | 0.00 | 0.00 | 18 | 944.3 |
| 20260509011510 | 62 | 246 | 22.0 | 34.0 | 0.00 | 0.00 | 0.00 | 19 | 944.3 |
| 20260509010044 | 63 | 244 | 16.0 | 34.0 | 0.00 | 0.00 | 0.00 | 20 | 944.2 |
| 20260509004525 | 64 | 273 | 22.0 | 29.0 | 0.00 | 0.00 | 0.00 | 19 | 943.9 |
| 20260509003102 | 65 | 239 | 17.0 | 29.0 | 0.00 | 0.00 | 0.00 | 21 | 944.1 |
| 20260509001536 | 66 | 255 | 14.0 | 27.0 | 0.00 | 0.00 | 0.00 | 21 | 944.3 |
| 20260509000017 | 64 | 221 | 18.0 | 26.0 | 0.00 | 0.00 | 0.00 | 21 | 944.3 |
| 20260508234549 | 65 | 250 | 20.0 | 28.0 | 0.00 | 0.00 | 0.00 | 20 | 944.4 |
| 20260508233046 | 66 | 296 | 15.0 | 25.0 | 0.00 | 0.00 | 0.00 | 21 | 944.5 |
| 20260508231530 | 66 | 272 | 16.0 | 26.0 | 0.00 | 0.00 | 0.00 | 22 | 944.6 |
| 20260508230026 | 65 | 236 | 18.0 | 29.0 | 0.00 | 0.00 | 0.00 | 23 | 945.0 |
| 20260508224559 | 66 | 304 | 15.0 | 26.0 | 0.00 | 0.00 | 0.00 | 24 | 945.1 |
| 20260508223031 | 65 | 247 | 13.0 | 29.0 | 0.00 | 0.00 | 0.00 | 24 | 945.2 |
| 20260508221519 | 66 | 236 | 17.0 | 26.0 | 0.00 | 0.00 | 0.00 | 24 | 945.2 |
| 20260508220105 | 66 | 249 | 18.0 | 29.0 | 0.00 | 0.00 | 0.00 | 23 | 945.3 |
| 20260508220003 | 66 | 258 | 17.0 | 29.0 | 0.00 | 0.00 | 0.00 | 23 | 945.2 |
| 20260508214540 | 66 | 248 | 12.0 | 27.0 | 0.00 | 0.00 | 0.00 | 24 | 945.4 |
| 20260508213016 | 64 | 272 | 13.0 | 24.0 | 0.00 | 0.00 | 0.00 | 26 | 945.6 |
| 20260508211554 | 65 | 237 | 11.0 | 22.0 | 0.00 | 0.00 | 0.00 | 25 | 945.8 |
| 20260508210041 | 65 | 283 | 16.0 | 22.0 | 0.00 | 0.00 | 0.00 | 23 | 945.9 |
| 20260508204539 | 64 | 281 | 13.0 | 28.0 | 0.00 | 0.00 | 0.00 | 24 | 945.9 |
| 20260508203019 | 64 | 283 | 14.0 | 21.0 | 0.00 | 0.00 | 0.00 | 25 | 945.9 |
| 20260508201552 | 64 | 204 | 14.0 | 21.0 | 0.00 | 0.00 | 0.00 | 27 | 946.1 |
| 20260508200033 | 63 | 239 | 12.0 | 21.0 | 0.00 | 0.00 | 0.00 | 31 | 946.1 |
| 20260508194531 | 63 | 238 | 10.0 | 17.0 | 0.00 | 0.00 | 0.00 | 32 | 946.1 |
| 20260508193021 | 62 | 228 | 10.0 | 24.0 | 0.00 | 0.00 | 0.00 | 33 | 946.2 |
| 20260508191553 | 62 | 257 | 13.0 | 19.0 | 0.00 | 0.00 | 0.00 | 32 | 946.2 |
| 20260508190037 | 62 | 292 | 14.0 | 20.0 | 0.00 | 0.00 | 0.00 | 31 | 946.2 |
| 20260508184517 | 62 | 248 | 12.0 | 21.0 | 0.00 | 0.00 | 0.00 | 33 | 946.2 |
| 20260508183008 | 62 | 215 | 5.0 | 13.0 | 0.00 | 0.00 | 0.00 | 32 | 946.5 |
| 20260508181547 | 61 | 267 | 7.0 | 18.0 | 0.00 | 0.00 | 0.00 | 33 | 946.5 |
| 20260508180027 | 60 | 236 | 5.0 | 12.0 | 0.00 | 0.00 | 0.00 | 31 | 946.7 |
| 20260508174536 | 60 | 316 | 5.0 | 10.0 | 0.00 | 0.00 | 0.00 | 36 | 946.8 |
| 20260508173005 | 59 | 273 | 6.0 | 15.0 | 0.00 | 0.00 | 0.00 | 37 | 946.8 |
| 20260508171607 | 59 | 290 | 7.0 | 13.0 | 0.00 | 0.00 | 0.00 | 38 | 946.9 |
| 20260508170025 | 58 | 271 | 7.0 | 13.0 | 0.00 | 0.00 | 0.00 | 38 | 946.9 |
| 20260508164603 | 57 | 275 | 6.0 | 11.0 | 0.00 | 0.00 | 0.00 | 37 | 946.9 |
| 20260508163057 | 57 | 298 | 5.0 | 12.0 | 0.00 | 0.00 | 0.00 | 38 | 946.9 |
| 20260508161545 | 56 | 288 | 6.0 | 11.0 | 0.00 | 0.00 | 0.00 | 36 | 946.8 |
| 20260508160028 | 56 | 273 | 4.0 | 8.0 | 0.00 | 0.00 | 0.00 | 35 | 946.9 |
| 20260508154555 | 56 | 234 | 5.0 | 7.0 | 0.00 | 0.00 | 0.00 | 35 | 946.9 |
| 20260508153039 | 55 | 267 | 1.0 | 5.0 | 0.00 | 0.00 | 0.00 | 36 | 946.9 |
| 20260508151546 | 55 | 278 | 2.0 | 6.0 | 0.00 | 0.00 | 0.00 | 35 | 946.9 |
| 20260508150016 | 54 | 268 | 2.0 | 7.0 | 0.00 | 0.00 | 0.00 | 36 | 947.0 |
| 20260508144554 | 54 | 271 | 1.0 | 4.0 | 0.00 | 0.00 | 0.00 | 37 | 947.0 |
| 20260508143030 | 54 | 175 | 0.0 | 2.0 | 0.00 | 0.00 | 0.00 | 37 | 946.9 |
| 20260508141527 | 54 | 175 | 0.0 | 1.0 | 0.00 | 0.00 | 0.00 | 36 | 946.9 |
| 20260508140021 | 53 | 175 | 1.0 | 3.0 | 0.00 | 0.00 | 0.00 | 38 | 946.8 |
| 20260508134626 | 52 | 121 | 0.0 | 2.0 | 0.00 | 0.00 | 0.00 | 39 | 946.7 |
| 20260508134505 | 52 | 121 | 0.0 | 2.0 | 0.00 | 0.00 | 0.00 | 38 | 946.7 |
| 20260508133103 | 52 | 121 | 0.0 | 2.0 | 0.00 | 0.00 | 0.00 | 39 | 946.6 |
| 20260508131541 | 51 | 121 | 0.0 | 1.0 | 0.00 | 0.00 | 0.00 | 37 | 946.5 |
| 20260508130023 | 48 | 187 | 0.0 | 0.0 | 0.00 | 0.00 | 0.00 | 42 | 946.3 |
| 20260508124557 | 48 | 187 | 0.0 | 0.0 | 0.00 | 0.00 | 0.00 | 43 | 946.2 |
| 20260508123039 | 48 | 187 | 0.0 | 5.0 | 0.00 | 0.00 | 0.00 | 43 | 946.2 |
| 20260508121535 | 47 | 194 | 2.0 | 6.0 | 0.00 | 0.00 | 0.00 | 45 | 946.1 |